Time,TemperatureF,DewpointF,PressureIn,WindDirection,WindDirectionDegrees,WindSpeedMPH,WindSpeedGustMPH,Humidity,HourlyPrecipIn,Conditions,Clouds,dailyrainin,SolarRadiationWatts/m^2,SoftwareType,DateUTC
2013-07-13 00:02:00,63.5,60.8,30.05,NW,318,0.0,1.0,91,0.00,,,0.00,0.0,meteohub,2013-07-13 04:02:00,
2013-07-13 00:03:00,63.5,61.2,30.06,NW,318,0.0,1.0,92,0.00,,,0.00,0.0,meteohub,2013-07-13 04:03:00,
2013-07-13 00:04:00,63.5,61.2,30.06,NW,318,1.0,1.0,92,0.00,,,0.00,0.0,meteohub,2013-07-13 04:04:00,
2013-07-13 00:07:00,63.5,61.2,30.06,NW,318,0.0,2.0,92,0.00,,,0.00,0.0,meteohub,2013-07-13 04:07:00,
2013-07-13 00:12:00,63.5,61.2,30.06,NW,318,0.0,2.0,92,0.00,,,0.00,0.0,meteohub,2013-07-13 04:12:00,
2013-07-13 00:17:00,63.5,61.5,30.06,NW,318,0.0,2.0,93,0.00,,,0.00,0.0,meteohub,2013-07-13 04:17:00,
2013-07-13 00:22:00,63.7,61.7,30.06,NW,318,0.0,2.0,93,0.00,,,0.00,0.0,meteohub,2013-07-13 04:22:00,
2013-07-13 00:27:00,63.7,61.7,30.06,NW,318,0.0,1.0,93,0.00,,,0.00,0.0,meteohub,2013-07-13 04:27:00,
2013-07-13 00:32:00,63.9,61.9,30.06,NNE,29,1.0,1.0,93,0.00,,,0.00,0.0,meteohub,2013-07-13 04:32:00,
2013-07-13 00:37:00,64.0,61.7,30.05,NNE,29,0.0,3.0,92,0.00,,,0.00,0.0,meteohub,2013-07-13 04:37:00,
2013-07-13 00:42:00,64.0,61.3,30.05,NE,35,1.0,3.0,91,0.00,,,0.00,0.0,meteohub,2013-07-13 04:42:00,
2013-07-13 00:48:00,64.2,61.2,30.05,NE,35,0.0,2.0,90,0.00,,,0.00,0.0,meteohub,2013-07-13 04:48:00,
2013-07-13 00:53:00,64.6,61.3,30.05,North,9,0.0,2.0,89,0.00,,,0.00,0.0,meteohub,2013-07-13 04:53:00,
2013-07-13 00:58:00,64.9,61.0,30.05,ENE,73,1.0,4.0,87,0.00,,,0.00,0.0,meteohub,2013-07-13 04:58:00,
2013-07-13 01:03:00,65.3,61.3,30.05,ENE,62,1.0,4.0,87,0.00,,,0.00,0.0,meteohub,2013-07-13 05:03:00,
2013-07-13 01:08:00,65.5,60.8,30.05,ENE,61,0.0,3.0,85,0.00,,,0.00,0.0,meteohub,2013-07-13 05:08:00,
2013-07-13 01:13:00,65.8,60.8,30.04,NNE,17,1.0,3.0,84,0.00,,,0.00,0.0,meteohub,2013-07-13 05:13:00,
2013-07-13 01:18:00,66.0,61.0,30.05,NNE,19,2.0,3.0,84,0.00,,,0.00,0.0,meteohub,2013-07-13 05:18:00,
2013-07-13 01:23:00,66.6,61.0,30.05,NE,41,4.0,5.0,82,0.00,,,0.00,0.0,meteohub,2013-07-13 05:23:00,
2013-07-13 01:28:00,66.9,60.6,30.05,ENE,61,6.0,6.0,80,0.00,,,0.00,0.0,meteohub,2013-07-13 05:28:00,
2013-07-13 01:33:00,67.5,61.2,30.05,NE,48,1.0,9.0,80,0.00,,,0.00,0.0,meteohub,2013-07-13 05:33:00,
2013-07-13 01:39:00,67.6,61.0,30.04,NNE,30,4.0,9.0,79,0.00,,,0.00,0.0,meteohub,2013-07-13 05:39:00,
2013-07-13 01:44:00,67.6,61.0,30.04,NE,50,3.0,9.0,79,0.00,,,0.00,0.0,meteohub,2013-07-13 05:44:00,
2013-07-13 01:49:00,67.6,61.0,30.04,NE,49,2.0,8.0,79,0.00,,,0.00,0.0,meteohub,2013-07-13 05:49:00,
2013-07-13 01:54:00,67.6,61.2,30.04,East,100,5.0,8.0,80,0.00,,,0.00,0.0,meteohub,2013-07-13 05:54:00,
2013-07-13 01:59:00,67.5,61.2,30.04,East,87,1.0,7.0,80,0.00,,,0.00,0.0,meteohub,2013-07-13 05:59:00,
2013-07-13 02:04:00,67.3,61.2,30.04,East,98,2.0,9.0,81,0.00,,,0.00,0.0,meteohub,2013-07-13 06:04:00,
2013-07-13 02:09:00,66.9,61.0,30.04,ENE,71,2.0,9.0,81,0.00,,,0.00,0.0,meteohub,2013-07-13 06:09:00,
2013-07-13 02:14:00,66.7,61.0,30.04,ESE,110,1.0,9.0,82,0.00,,,0.00,0.0,meteohub,2013-07-13 06:14:00,
2013-07-13 02:19:00,66.4,60.8,30.04,East,101,2.0,6.0,82,0.00,,,0.00,0.0,meteohub,2013-07-13 06:19:00,
2013-07-13 02:24:00,66.2,60.6,30.04,ENE,74,1.0,6.0,82,0.00,,,0.00,0.0,meteohub,2013-07-13 06:24:00,
2013-07-13 02:29:00,66.0,60.6,30.04,ESE,111,2.0,7.0,83,0.00,,,0.00,0.0,meteohub,2013-07-13 06:29:00,
2013-07-13 02:34:00,65.8,60.6,30.04,ENE,69,2.0,7.0,83,0.00,,,0.00,0.0,meteohub,2013-07-13 06:34:00,
2013-07-13 02:39:00,65.8,60.8,30.04,East,98,1.0,7.0,84,0.00,,,0.00,0.0,meteohub,2013-07-13 06:39:00,
2013-07-13 02:45:00,65.7,60.6,30.04,SE,129,2.0,7.0,84,0.00,,,0.00,0.0,meteohub,2013-07-13 06:45:00,
2013-07-13 02:50:00,65.5,60.8,30.04,ESE,119,2.0,7.0,85,0.00,,,0.00,0.0,meteohub,2013-07-13 06:50:00,
2013-07-13 02:55:00,65.5,60.8,30.04,ENE,69,3.0,7.0,85,0.00,,,0.00,0.0,meteohub,2013-07-13 06:55:00,
2013-07-13 03:00:00,65.3,60.6,30.05,ENE,74,1.0,7.0,85,0.00,,,0.00,0.0,meteohub,2013-07-13 07:00:00,
2013-07-13 03:05:00,65.1,60.4,30.05,East,81,3.0,6.0,85,0.00,,,0.00,0.0,meteohub,2013-07-13 07:05:00,
2013-07-13 03:10:00,64.9,60.6,30.04,ESE,120,2.0,7.0,86,0.00,,,0.00,0.0,meteohub,2013-07-13 07:10:00,
2013-07-13 03:15:00,64.9,60.6,30.04,ENE,73,1.0,7.0,86,0.00,,,0.00,0.0,meteohub,2013-07-13 07:15:00,
2013-07-13 03:20:00,64.8,60.4,30.04,ENE,67,6.0,7.0,86,0.00,,,0.00,0.0,meteohub,2013-07-13 07:20:00,
2013-07-13 03:25:00,64.8,60.4,30.04,ENE,60,3.0,6.0,86,0.00,,,0.00,0.0,meteohub,2013-07-13 07:25:00,
2013-07-13 03:30:00,64.8,60.4,30.04,ENE,65,1.0,6.0,86,0.00,,,0.00,0.0,meteohub,2013-07-13 07:30:00,
2013-07-13 03:35:00,64.6,60.3,30.04,East,96,1.0,6.0,86,0.00,,,0.00,0.0,meteohub,2013-07-13 07:35:00,
2013-07-13 03:40:00,64.6,60.6,30.04,ENE,75,1.0,6.0,87,0.00,,,0.00,0.0,meteohub,2013-07-13 07:40:00,
2013-07-13 03:45:00,64.4,60.4,30.04,SSE,153,3.0,6.0,87,0.00,,,0.00,0.0,meteohub,2013-07-13 07:45:00,
2013-07-13 03:50:00,64.2,60.3,30.04,ENE,63,6.0,6.0,87,0.00,,,0.00,0.0,meteohub,2013-07-13 07:50:00,
2013-07-13 03:56:00,64.2,60.3,30.04,NE,46,3.0,10.0,87,0.00,,,0.00,0.0,meteohub,2013-07-13 07:56:00,
2013-07-13 04:01:00,64.2,60.3,30.04,NE,55,4.0,10.0,87,0.00,,,0.00,0.0,meteohub,2013-07-13 08:01:00,
2013-07-13 04:06:00,64.2,60.3,30.04,ENE,61,2.0,10.0,87,0.00,,,0.00,0.0,meteohub,2013-07-13 08:06:00,
2013-07-13 04:11:00,64.2,60.3,30.04,NE,54,1.0,7.0,87,0.00,,,0.00,0.0,meteohub,2013-07-13 08:11:00,
2013-07-13 04:16:00,64.2,60.6,30.04,ENE,67,2.0,7.0,88,0.00,,,0.00,0.0,meteohub,2013-07-13 08:16:00,
2013-07-13 04:21:00,64.2,60.6,30.04,NNE,33,1.0,7.0,88,0.00,,,0.00,0.0,meteohub,2013-07-13 08:21:00,
2013-07-13 04:26:00,64.2,60.6,30.04,NE,50,4.0,7.0,88,0.00,,,0.00,0.0,meteohub,2013-07-13 08:26:00,
2013-07-13 04:31:00,64.0,60.4,30.04,NE,49,1.0,6.0,88,0.00,,,0.00,0.0,meteohub,2013-07-13 08:31:00,
2013-07-13 04:37:00,64.0,60.4,30.04,ENE,63,1.0,6.0,88,0.00,,,0.00,0.0,meteohub,2013-07-13 08:37:00,
2013-07-13 04:42:00,64.0,60.4,30.04,NE,56,1.0,5.0,88,0.00,,,0.00,0.0,meteohub,2013-07-13 08:42:00,
2013-07-13 04:47:00,64.2,60.6,30.04,NE,39,2.0,6.0,88,0.00,,,0.00,0.0,meteohub,2013-07-13 08:47:00,
2013-07-13 04:52:00,64.2,60.6,30.04,NNE,14,3.0,6.0,88,0.00,,,0.00,0.0,meteohub,2013-07-13 08:52:00,
2013-07-13 04:57:00,64.2,60.6,30.04,ENE,73,3.0,7.0,88,0.00,,,0.00,0.0,meteohub,2013-07-13 08:57:00,
2013-07-13 05:02:00,64.0,60.4,30.04,ENE,63,1.0,7.0,88,0.00,,,0.00,0.0,meteohub,2013-07-13 09:02:00,
2013-07-13 05:07:00,64.0,60.4,30.04,ENE,74,2.0,7.0,88,0.00,,,0.00,0.0,meteohub,2013-07-13 09:07:00,
2013-07-13 05:12:00,64.0,60.4,30.05,NE,39,1.0,7.0,88,0.00,,,0.00,0.0,meteohub,2013-07-13 09:12:00,
2013-07-13 05:17:00,64.0,60.4,30.05,NNE,25,2.0,7.0,88,0.00,,,0.00,0.0,meteohub,2013-07-13 09:17:00,
2013-07-13 05:22:00,63.9,60.3,30.06,NNE,27,1.0,5.0,88,0.00,,,0.00,0.0,meteohub,2013-07-13 09:22:00,
2013-07-13 05:27:00,63.9,60.3,30.06,North,349,3.0,5.0,88,0.00,,,0.00,0.0,meteohub,2013-07-13 09:27:00,
2013-07-13 05:33:00,63.9,60.3,30.06,North,357,2.0,5.0,88,0.00,,,0.00,0.0,meteohub,2013-07-13 09:33:00,
2013-07-13 05:38:00,63.7,60.1,30.06,ENE,60,1.0,4.0,88,0.00,,,0.00,0.0,meteohub,2013-07-13 09:38:00,
2013-07-13 05:43:00,63.7,60.1,30.06,NNE,29,0.0,4.0,88,0.00,,,0.00,0.0,meteohub,2013-07-13 09:43:00,
2013-07-13 05:48:00,63.7,60.1,30.06,NE,52,2.0,5.0,88,0.00,,,0.00,0.0,meteohub,2013-07-13 09:48:00,
2013-07-13 05:53:00,63.5,59.9,30.06,ENE,65,0.0,5.0,88,0.00,,,0.00,0.0,meteohub,2013-07-13 09:53:00,
2013-07-13 05:58:00,63.3,59.7,30.06,ENE,64,2.0,5.0,88,0.00,,,0.00,0.0,meteohub,2013-07-13 09:58:00,
2013-07-13 06:03:00,63.3,59.7,30.06,NE,51,0.0,4.0,88,0.00,,,0.00,0.0,meteohub,2013-07-13 10:03:00,
2013-07-13 06:08:00,63.1,59.9,30.06,ENE,69,1.0,5.0,89,0.00,,,0.00,0.0,meteohub,2013-07-13 10:08:00,
2013-07-13 06:13:00,63.1,59.9,30.06,NE,51,2.0,5.0,89,0.00,,,0.00,0.0,meteohub,2013-07-13 10:13:00,
2013-07-13 06:18:00,63.0,59.7,30.06,ENE,68,2.0,5.0,89,0.00,,,0.00,0.0,meteohub,2013-07-13 10:18:00,
2013-07-13 06:23:00,63.1,59.9,30.06,NE,49,2.0,5.0,89,0.00,,,0.00,7.0,meteohub,2013-07-13 10:23:00,
2013-07-13 06:28:00,63.1,59.9,30.06,ENE,72,0.0,5.0,89,0.00,,,0.00,12.0,meteohub,2013-07-13 10:28:00,
2013-07-13 06:33:00,63.1,59.5,30.06,ENE,61,1.0,5.0,88,0.00,,,0.00,16.0,meteohub,2013-07-13 10:33:00,
2013-07-13 06:38:00,63.1,59.9,30.06,East,92,3.0,5.0,89,0.00,,,0.00,18.0,meteohub,2013-07-13 10:38:00,
2013-07-13 06:43:00,63.1,59.9,30.06,ENE,71,2.0,7.0,89,0.00,,,0.00,19.0,meteohub,2013-07-13 10:43:00,
2013-07-13 06:49:00,63.1,59.5,30.06,ENE,69,2.0,7.0,88,0.00,,,0.00,21.0,meteohub,2013-07-13 10:49:00,
2013-07-13 06:54:00,63.1,59.5,30.06,ENE,77,0.0,7.0,88,0.00,,,0.00,25.0,meteohub,2013-07-13 10:54:00,
2013-07-13 06:59:00,63.1,59.5,30.06,ENE,71,3.0,6.0,88,0.00,,,0.00,26.0,meteohub,2013-07-13 10:59:00,
2013-07-13 07:04:00,63.1,59.5,30.06,NNE,21,4.0,7.0,88,0.00,,,0.00,28.0,meteohub,2013-07-13 11:04:00,
2013-07-13 07:09:00,63.3,59.7,30.06,ENE,63,3.0,7.0,88,0.00,,,0.00,33.0,meteohub,2013-07-13 11:09:00,
2013-07-13 07:14:00,63.5,59.5,30.06,SE,131,3.0,7.0,87,0.00,,,0.00,46.0,meteohub,2013-07-13 11:14:00,
2013-07-13 07:19:00,63.7,59.7,30.06,East,96,5.0,8.0,87,0.00,,,0.00,63.0,meteohub,2013-07-13 11:19:00,
2013-07-13 07:25:00,64.0,59.7,30.06,ESE,102,3.0,8.0,86,0.00,,,0.00,69.0,meteohub,2013-07-13 11:25:00,
2013-07-13 07:30:00,64.2,59.5,30.06,East,88,3.0,9.0,85,0.00,,,0.00,67.0,meteohub,2013-07-13 11:30:00,
2013-07-13 07:35:00,64.8,60.1,30.06,ESE,110,2.0,9.0,85,0.00,,,0.00,76.0,meteohub,2013-07-13 11:35:00,
2013-07-13 07:40:00,64.9,59.9,30.06,ESE,117,6.0,9.0,84,0.00,,,0.00,58.0,meteohub,2013-07-13 11:40:00,
2013-07-13 07:45:00,65.3,60.3,30.07,East,91,4.0,9.0,84,0.00,,,0.00,51.0,meteohub,2013-07-13 11:45:00,
2013-07-13 07:50:00,65.5,60.4,30.07,East,92,4.0,12.0,84,0.00,,,0.00,56.0,meteohub,2013-07-13 11:50:00,
2013-07-13 07:55:00,65.7,60.4,30.07,East,80,7.0,12.0,83,0.00,,,0.00,53.0,meteohub,2013-07-13 11:55:00,
2013-07-13 08:00:00,65.7,60.4,30.07,NE,36,3.0,12.0,83,0.00,,,0.00,84.0,meteohub,2013-07-13 12:00:00,
2013-07-13 08:05:00,65.8,60.8,30.07,NE,48,3.0,9.0,84,0.00,,,0.00,95.0,meteohub,2013-07-13 12:05:00,
2013-07-13 08:10:00,66.0,61.0,30.07,ESE,102,5.0,9.0,84,0.00,,,0.00,76.0,meteohub,2013-07-13 12:10:00,
2013-07-13 08:16:00,66.4,61.3,30.07,ENE,61,0.0,7.0,84,0.00,,,0.00,250.0,meteohub,2013-07-13 12:16:00,
2013-07-13 08:21:00,66.7,61.7,30.07,East,93,1.0,7.0,84,0.00,,,0.00,265.0,meteohub,2013-07-13 12:21:00,
2013-07-13 08:26:00,67.5,61.7,30.07,NNE,31,4.0,6.0,82,0.00,,,0.00,281.0,meteohub,2013-07-13 12:26:00,
2013-07-13 08:31:00,68.0,61.9,30.06,NE,44,1.0,6.0,81,0.00,,,0.00,295.0,meteohub,2013-07-13 12:31:00,
2013-07-13 08:36:00,68.5,61.7,30.06,ESE,113,1.0,6.0,79,0.00,,,0.00,311.0,meteohub,2013-07-13 12:36:00,
2013-07-13 08:41:00,69.1,62.6,30.07,ENE,64,5.0,7.0,80,0.00,,,0.00,327.0,meteohub,2013-07-13 12:41:00,
2013-07-13 08:46:00,69.4,62.6,30.07,North,3,3.0,7.0,79,0.00,,,0.00,341.0,meteohub,2013-07-13 12:46:00,
2013-07-13 08:51:00,69.8,62.6,30.07,NE,46,3.0,10.0,78,0.00,,,0.00,362.0,meteohub,2013-07-13 12:51:00,
2013-07-13 08:56:00,70.2,62.6,30.07,East,92,2.0,10.0,77,0.00,,,0.00,399.0,meteohub,2013-07-13 12:56:00,
2013-07-13 09:01:00,70.5,63.3,30.07,NE,54,2.0,10.0,78,0.00,,,0.00,401.0,meteohub,2013-07-13 13:01:00,
2013-07-13 09:06:00,71.1,63.5,30.08,NE,55,1.0,9.0,77,0.00,,,0.00,244.0,meteohub,2013-07-13 13:06:00,
2013-07-13 09:12:00,71.2,63.7,30.08,NE,50,3.0,9.0,77,0.00,,,0.00,582.0,meteohub,2013-07-13 13:12:00,
2013-07-13 09:17:00,72.0,64.4,30.08,ESE,103,3.0,9.0,77,0.00,,,0.00,489.0,meteohub,2013-07-13 13:17:00,
2013-07-13 09:22:00,72.1,63.9,30.08,North,11,4.0,11.0,75,0.00,,,0.00,540.0,meteohub,2013-07-13 13:22:00,
2013-07-13 09:27:00,72.5,64.0,30.08,NE,50,4.0,11.0,75,0.00,,,0.00,483.0,meteohub,2013-07-13 13:27:00,
2013-07-13 09:32:00,72.9,64.4,30.08,ESE,113,5.0,11.0,75,0.00,,,0.00,483.0,meteohub,2013-07-13 13:32:00,
2013-07-13 09:37:00,73.0,65.5,30.09,ESE,114,2.0,10.0,77,0.00,,,0.00,490.0,meteohub,2013-07-13 13:37:00,
2013-07-13 09:42:00,73.2,65.1,30.09,NE,52,7.0,10.0,76,0.00,,,0.00,506.0,meteohub,2013-07-13 13:42:00,
2013-07-13 09:47:00,73.6,65.1,30.08,WSW,240,6.0,11.0,75,0.00,,,0.00,522.0,meteohub,2013-07-13 13:47:00,
2013-07-13 09:52:00,73.9,65.5,30.08,SE,126,4.0,11.0,75,0.00,,,0.00,555.0,meteohub,2013-07-13 13:52:00,
2013-07-13 09:57:00,73.9,65.5,30.08,East,84,3.0,11.0,75,0.00,,,0.00,575.0,meteohub,2013-07-13 13:57:00,
2013-07-13 10:02:00,74.3,66.2,30.08,ESE,122,9.0,10.0,76,0.00,,,0.00,589.0,meteohub,2013-07-13 14:02:00,
2013-07-13 10:07:00,74.5,65.7,30.08,East,88,3.0,10.0,74,0.00,,,0.00,255.0,meteohub,2013-07-13 14:07:00,
2013-07-13 10:12:00,74.1,64.9,30.08,ESE,117,4.0,10.0,73,0.00,,,0.00,288.0,meteohub,2013-07-13 14:12:00,
2013-07-13 10:17:00,73.6,65.1,30.09,East,88,3.0,11.0,75,0.00,,,0.00,330.0,meteohub,2013-07-13 14:17:00,
2013-07-13 10:22:00,73.4,64.9,30.08,East,94,2.0,11.0,75,0.00,,,0.00,369.0,meteohub,2013-07-13 14:22:00,
2013-07-13 10:27:00,73.6,65.8,30.08,ENE,60,5.0,10.0,77,0.00,,,0.00,327.0,meteohub,2013-07-13 14:27:00,
2013-07-13 10:32:00,73.6,65.5,30.08,NE,46,2.0,9.0,76,0.00,,,0.00,323.0,meteohub,2013-07-13 14:32:00,
2013-07-13 10:37:00,73.4,65.7,30.08,SE,136,3.0,10.0,77,0.00,,,0.00,243.0,meteohub,2013-07-13 14:37:00,
2013-07-13 10:42:00,73.0,65.5,30.08,NE,47,4.0,10.0,77,0.00,,,0.00,207.0,meteohub,2013-07-13 14:42:00,
2013-07-13 10:47:00,72.7,65.5,30.08,ENE,69,2.0,10.0,78,0.00,,,0.00,230.0,meteohub,2013-07-13 14:47:00,
2013-07-13 10:52:00,72.3,64.4,30.09,ENE,58,3.0,9.0,76,0.00,,,0.00,216.0,meteohub,2013-07-13 14:52:00,
2013-07-13 10:57:00,71.6,64.0,30.09,ENE,78,5.0,9.0,77,0.00,,,0.00,192.0,meteohub,2013-07-13 14:57:00,
2013-07-13 11:02:00,71.1,64.2,30.08,ENE,76,4.0,9.0,79,0.00,,,0.00,200.0,meteohub,2013-07-13 15:02:00,
2013-07-13 11:07:00,70.9,64.4,30.08,ENE,71,8.0,9.0,80,0.00,,,0.00,223.0,meteohub,2013-07-13 15:07:00,
2013-07-13 11:12:00,70.7,65.3,30.08,NE,44,0.0,9.0,83,0.00,,,0.00,248.0,meteohub,2013-07-13 15:12:00,
2013-07-13 11:17:00,70.5,65.1,30.08,NE,40,5.0,9.0,83,0.00,,,0.00,258.0,meteohub,2013-07-13 15:17:00,
2013-07-13 11:22:00,70.2,65.1,30.08,ENE,58,7.0,9.0,84,0.00,,,0.00,325.0,meteohub,2013-07-13 15:22:00,
2013-07-13 11:27:00,70.7,65.7,30.08,SE,140,5.0,8.0,84,0.00,,,0.00,930.0,meteohub,2013-07-13 15:27:00,
2013-07-13 11:32:00,71.4,66.0,30.08,ESE,102,6.0,8.0,83,0.00,,,0.00,837.0,meteohub,2013-07-13 15:32:00,
2013-07-13 11:37:00,72.0,66.2,30.08,SE,127,4.0,10.0,82,0.00,,,0.00,856.0,meteohub,2013-07-13 15:37:00,
2013-07-13 11:42:00,72.5,66.7,30.09,ESE,111,5.0,10.0,82,0.00,,,0.00,603.0,meteohub,2013-07-13 15:42:00,
2013-07-13 11:47:00,73.4,67.6,30.08,NE,54,3.0,11.0,82,0.00,,,0.00,962.0,meteohub,2013-07-13 15:47:00,
2013-07-13 11:52:00,74.1,66.7,30.08,ESE,119,5.0,11.0,78,0.00,,,0.00,325.0,meteohub,2013-07-13 15:52:00,
2013-07-13 11:57:00,74.1,67.1,30.08,NNE,16,3.0,10.0,79,0.00,,,0.00,851.0,meteohub,2013-07-13 15:57:00,
2013-07-13 12:02:00,74.8,67.8,30.08,SE,125,1.0,10.0,79,0.00,,,0.00,853.0,meteohub,2013-07-13 16:02:00,
2013-07-13 12:07:00,75.9,69.6,30.07,ENE,59,4.0,10.0,81,0.00,,,0.00,863.0,meteohub,2013-07-13 16:07:00,
2013-07-13 12:12:00,76.6,67.6,30.08,SE,145,1.0,7.0,74,0.00,,,0.00,882.0,meteohub,2013-07-13 16:12:00,
2013-07-13 12:17:00,76.5,68.0,30.08,NE,55,2.0,6.0,75,0.00,,,0.00,918.0,meteohub,2013-07-13 16:17:00,
2013-07-13 12:22:00,76.6,68.2,30.08,North,11,4.0,6.0,75,0.00,,,0.00,888.0,meteohub,2013-07-13 16:22:00,
2013-07-13 12:27:00,77.2,69.1,30.08,SE,142,3.0,6.0,76,0.00,,,0.00,886.0,meteohub,2013-07-13 16:27:00,
2013-07-13 12:32:00,78.1,70.7,30.08,ENE,73,2.0,5.0,78,0.00,,,0.00,879.0,meteohub,2013-07-13 16:32:00,
2013-07-13 12:37:00,78.1,67.5,30.08,ESE,113,1.0,6.0,70,0.00,,,0.00,896.0,meteohub,2013-07-13 16:37:00,
2013-07-13 12:42:00,77.4,67.3,30.08,ESE,118,1.0,7.0,71,0.00,,,0.00,898.0,meteohub,2013-07-13 16:42:00,
2013-07-13 12:48:00,78.4,69.8,30.08,SE,131,2.0,7.0,75,0.00,,,0.00,895.0,meteohub,2013-07-13 16:48:00,
2013-07-13 12:53:00,78.3,67.6,30.08,East,93,5.0,7.0,70,0.00,,,0.00,898.0,meteohub,2013-07-13 16:53:00,
2013-07-13 12:58:00,78.1,68.7,30.08,NE,53,2.0,7.0,73,0.00,,,0.00,912.0,meteohub,2013-07-13 16:58:00,
2013-07-13 13:03:00,78.6,69.3,30.07,East,88,7.0,7.0,73,0.00,,,0.00,909.0,meteohub,2013-07-13 17:03:00,
2013-07-13 13:08:00,78.8,68.5,30.07,ESE,116,1.0,7.0,71,0.00,,,0.00,911.0,meteohub,2013-07-13 17:08:00,
2013-07-13 13:13:00,79.5,68.9,30.06,East,79,0.0,7.0,70,0.00,,,0.00,914.0,meteohub,2013-07-13 17:13:00,
2013-07-13 13:18:00,79.9,69.6,30.06,NE,47,6.0,7.0,71,0.00,,,0.00,923.0,meteohub,2013-07-13 17:18:00,
2013-07-13 13:23:00,79.7,67.8,30.06,ESE,113,2.0,9.0,67,0.00,,,0.00,928.0,meteohub,2013-07-13 17:23:00,
2013-07-13 13:28:00,79.5,66.7,30.06,NE,50,3.0,11.0,65,0.00,,,0.00,932.0,meteohub,2013-07-13 17:28:00,
2013-07-13 13:33:00,79.5,67.6,30.06,ESE,107,7.0,11.0,67,0.00,,,0.00,949.0,meteohub,2013-07-13 17:33:00,
2013-07-13 13:39:00,80.1,67.3,30.06,ESE,117,6.0,11.0,65,0.00,,,0.00,954.0,meteohub,2013-07-13 17:39:00,
2013-07-13 13:44:00,80.2,68.4,30.06,SE,128,7.0,12.0,67,0.00,,,0.00,969.0,meteohub,2013-07-13 17:44:00,
2013-07-13 13:49:00,81.0,68.9,30.06,NNE,23,2.0,12.0,67,0.00,,,0.00,981.0,meteohub,2013-07-13 17:49:00,
2013-07-13 13:54:00,81.0,66.7,30.06,ENE,61,3.0,12.0,62,0.00,,,0.00,1002.0,meteohub,2013-07-13 17:54:00,
2013-07-13 13:59:00,80.6,66.4,30.07,SE,145,5.0,12.0,62,0.00,,,0.00,847.0,meteohub,2013-07-13 17:59:00,
2013-07-13 14:04:00,81.0,65.8,30.07,SE,137,6.0,12.0,60,0.00,,,0.00,334.0,meteohub,2013-07-13 18:04:00,
2013-07-13 14:09:00,80.4,66.2,30.07,SE,131,9.0,12.0,62,0.00,,,0.00,1025.0,meteohub,2013-07-13 18:09:00,
2013-07-13 14:14:00,80.4,67.6,30.07,NNE,32,3.0,11.0,65,0.00,,,0.00,654.0,meteohub,2013-07-13 18:14:00,
2013-07-13 14:19:00,80.2,66.9,30.07,NE,49,2.0,11.0,64,0.00,,,0.00,613.0,meteohub,2013-07-13 18:19:00,
2013-07-13 14:24:00,80.2,66.9,30.07,SE,146,4.0,11.0,64,0.00,,,0.00,642.0,meteohub,2013-07-13 18:24:00,
2013-07-13 14:29:00,79.9,67.1,30.06,SE,140,8.0,10.0,65,0.00,,,0.00,526.0,meteohub,2013-07-13 18:29:00,
2013-07-13 14:34:00,79.9,66.2,30.06,East,86,1.0,10.0,63,0.00,,,0.00,413.0,meteohub,2013-07-13 18:34:00,
2013-07-13 14:39:00,79.7,66.0,30.06,NNE,23,1.0,11.0,63,0.00,,,0.00,466.0,meteohub,2013-07-13 18:39:00,
2013-07-13 14:45:00,79.5,67.1,30.06,South,181,3.0,11.0,66,0.00,,,0.00,524.0,meteohub,2013-07-13 18:45:00,
2013-07-13 14:50:00,79.9,68.7,30.06,East,89,4.0,7.0,69,0.00,,,0.00,504.0,meteohub,2013-07-13 18:50:00,
2013-07-13 14:55:00,80.2,67.5,30.06,East,97,2.0,7.0,65,0.00,,,0.00,561.0,meteohub,2013-07-13 18:55:00,
2013-07-13 15:00:00,80.2,66.6,30.06,South,181,4.0,7.0,63,0.00,,,0.00,489.0,meteohub,2013-07-13 19:00:00,
2013-07-13 15:05:00,80.1,68.5,30.06,SSE,151,2.0,6.0,68,0.00,,,0.00,434.0,meteohub,2013-07-13 19:05:00,
2013-07-13 15:10:00,80.1,65.8,30.06,SE,142,2.0,7.0,62,0.00,,,0.00,338.0,meteohub,2013-07-13 19:10:00,
2013-07-13 15:15:00,79.9,66.6,30.06,SSE,152,7.0,7.0,64,0.00,,,0.00,308.0,meteohub,2013-07-13 19:15:00,
2013-07-13 15:20:00,79.5,65.8,30.06,ESE,116,2.0,8.0,63,0.00,,,0.00,283.0,meteohub,2013-07-13 19:20:00,
2013-07-13 15:25:00,79.3,66.0,30.06,SSW,198,7.0,9.0,64,0.00,,,0.00,279.0,meteohub,2013-07-13 19:25:00,
2013-07-13 15:30:00,79.2,66.4,30.06,SE,129,5.0,11.0,65,0.00,,,0.00,299.0,meteohub,2013-07-13 19:30:00,
2013-07-13 15:35:00,79.2,66.7,30.07,SE,138,0.0,11.0,66,0.00,,,0.00,297.0,meteohub,2013-07-13 19:35:00,
2013-07-13 15:41:00,79.3,66.6,30.07,ESE,121,3.0,11.0,65,0.00,,,0.00,278.0,meteohub,2013-07-13 19:41:00,
2013-07-13 15:46:00,79.0,66.2,30.07,SSW,200,1.0,8.0,65,0.00,,,0.00,281.0,meteohub,2013-07-13 19:46:00,
2013-07-13 15:51:00,78.8,66.6,30.07,East,86,1.0,8.0,66,0.00,,,0.00,301.0,meteohub,2013-07-13 19:51:00,
2013-07-13 15:56:00,78.6,65.5,30.07,SE,142,4.0,8.0,64,0.00,,,0.00,343.0,meteohub,2013-07-13 19:56:00,
2013-07-13 16:01:00,78.8,66.6,30.07,ESE,112,4.0,9.0,66,0.00,,,0.00,380.0,meteohub,2013-07-13 20:01:00,
2013-07-13 16:06:00,79.0,66.6,30.07,SE,139,5.0,9.0,66,0.00,,,0.00,429.0,meteohub,2013-07-13 20:06:00,
2013-07-13 16:11:00,79.3,66.9,30.06,East,83,1.0,9.0,66,0.00,,,0.00,396.0,meteohub,2013-07-13 20:11:00,
2013-07-13 16:16:00,79.3,66.9,30.06,ESE,102,6.0,8.0,66,0.00,,,0.00,359.0,meteohub,2013-07-13 20:16:00,
2013-07-13 16:21:00,79.0,66.2,30.07,SSE,159,5.0,8.0,65,0.00,,,0.00,366.0,meteohub,2013-07-13 20:21:00,
2013-07-13 16:26:00,79.2,67.3,30.07,ESE,115,4.0,8.0,67,0.00,,,0.00,373.0,meteohub,2013-07-13 20:26:00,
2013-07-13 16:31:00,79.2,67.6,30.07,SSE,152,2.0,9.0,68,0.00,,,0.00,352.0,meteohub,2013-07-13 20:31:00,
2013-07-13 16:36:00,79.2,68.2,30.07,SSE,149,5.0,9.0,69,0.00,,,0.00,373.0,meteohub,2013-07-13 20:36:00,
2013-07-13 16:41:00,78.8,68.2,30.08,ESE,121,7.0,9.0,70,0.00,,,0.00,288.0,meteohub,2013-07-13 20:41:00,
2013-07-13 16:46:00,78.1,68.4,30.08,SE,133,7.0,9.0,72,0.00,,,0.00,264.0,meteohub,2013-07-13 20:46:00,
2013-07-13 16:52:00,76.6,68.5,30.08,East,99,4.0,14.0,76,0.00,,,0.00,271.0,meteohub,2013-07-13 20:52:00,
2013-07-13 16:57:00,75.6,68.2,30.07,ESE,109,5.0,14.0,78,0.00,,,0.00,285.0,meteohub,2013-07-13 20:57:00,
2013-07-13 17:02:00,74.8,69.3,30.06,ESE,104,9.0,14.0,83,0.01,,,0.01,339.0,meteohub,2013-07-13 21:02:00,
2013-07-13 17:07:00,75.4,69.8,30.05,SE,146,1.0,10.0,83,0.01,,,0.01,840.0,meteohub,2013-07-13 21:07:00,
2013-07-13 17:12:00,76.5,70.9,30.05,SSE,159,3.0,9.0,83,0.01,,,0.01,652.0,meteohub,2013-07-13 21:12:00,
2013-07-13 17:17:00,77.4,70.3,30.05,East,85,2.0,9.0,79,0.01,,,0.01,717.0,meteohub,2013-07-13 21:17:00,
2013-07-13 17:22:00,77.7,71.1,30.05,East,98,3.0,8.0,80,0.01,,,0.01,733.0,meteohub,2013-07-13 21:22:00,
2013-07-13 17:27:00,78.4,70.2,30.05,SSE,165,1.0,8.0,76,0.01,,,0.01,694.0,meteohub,2013-07-13 21:27:00,
2013-07-13 17:32:00,79.2,70.2,30.04,SE,145,5.0,6.0,74,0.01,,,0.01,768.0,meteohub,2013-07-13 21:32:00,
2013-07-13 17:37:00,80.2,70.0,30.05,SE,124,3.0,7.0,71,0.01,,,0.01,696.0,meteohub,2013-07-13 21:37:00,
2013-07-13 17:42:00,79.9,69.3,30.04,NNE,32,1.0,7.0,70,0.01,,,0.01,547.0,meteohub,2013-07-13 21:42:00,
2013-07-13 17:47:00,79.9,69.3,30.05,South,174,6.0,7.0,70,0.01,,,0.01,573.0,meteohub,2013-07-13 21:47:00,
2013-07-13 17:52:00,80.4,69.3,30.05,East,89,2.0,6.0,69,0.01,,,0.01,545.0,meteohub,2013-07-13 21:52:00,
2013-07-13 17:57:00,80.6,69.1,30.05,SSE,156,3.0,6.0,68,0.00,,,0.01,487.0,meteohub,2013-07-13 21:57:00,
2013-07-13 18:03:00,81.0,68.5,30.05,East,88,0.0,6.0,66,0.00,,,0.01,475.0,meteohub,2013-07-13 22:03:00,
2013-07-13 18:08:00,80.8,66.6,30.05,ESE,108,6.0,6.0,62,0.00,,,0.01,461.0,meteohub,2013-07-13 22:08:00,
2013-07-13 18:13:00,80.4,67.1,30.05,ENE,73,3.0,6.0,64,0.00,,,0.01,443.0,meteohub,2013-07-13 22:13:00,
2013-07-13 18:18:00,80.6,67.3,30.05,ESE,120,2.0,6.0,64,0.00,,,0.01,427.0,meteohub,2013-07-13 22:18:00,
2013-07-13 18:23:00,81.0,67.1,30.04,SSE,152,1.0,6.0,63,0.00,,,0.01,190.0,meteohub,2013-07-13 22:23:00,
2013-07-13 18:28:00,80.4,68.5,30.05,SE,145,1.0,6.0,67,0.00,,,0.01,388.0,meteohub,2013-07-13 22:28:00,
2013-07-13 18:34:00,80.6,67.8,30.05,ESE,121,1.0,5.0,65,0.00,,,0.01,371.0,meteohub,2013-07-13 22:34:00,
2013-07-13 18:39:00,81.0,68.5,30.05,ESE,119,3.0,6.0,66,0.00,,,0.01,359.0,meteohub,2013-07-13 22:39:00,
2013-07-13 18:44:00,81.3,69.3,30.05,SE,133,0.0,6.0,67,0.00,,,0.01,341.0,meteohub,2013-07-13 22:44:00,
2013-07-13 18:49:00,81.3,69.3,30.05,SE,129,1.0,6.0,67,0.00,,,0.01,325.0,meteohub,2013-07-13 22:49:00,
2013-07-13 18:54:00,81.7,69.6,30.05,NNE,24,1.0,5.0,67,0.00,,,0.01,306.0,meteohub,2013-07-13 22:54:00,
2013-07-13 18:59:00,81.7,68.7,30.05,ESE,113,2.0,5.0,65,0.00,,,0.01,287.0,meteohub,2013-07-13 22:59:00,
2013-07-13 19:04:00,81.9,69.4,30.05,SE,131,0.0,5.0,66,0.00,,,0.01,274.0,meteohub,2013-07-13 23:04:00,
2013-07-13 19:09:00,82.0,68.7,30.05,NE,39,3.0,4.0,64,0.00,,,0.01,257.0,meteohub,2013-07-13 23:09:00,
2013-07-13 19:14:00,81.5,68.5,30.05,ENE,75,0.0,4.0,65,0.00,,,0.01,225.0,meteohub,2013-07-13 23:14:00,
2013-07-13 19:19:00,81.3,68.4,30.05,NNE,28,3.0,5.0,65,0.00,,,0.01,98.0,meteohub,2013-07-13 23:19:00,
2013-07-13 19:24:00,81.1,68.7,30.05,NNE,26,1.0,5.0,66,0.00,,,0.01,56.0,meteohub,2013-07-13 23:24:00,
2013-07-13 19:30:00,80.8,68.7,30.05,NE,40,1.0,5.0,67,0.00,,,0.01,56.0,meteohub,2013-07-13 23:30:00,
2013-07-13 19:35:00,80.2,68.4,30.06,ENE,61,1.0,4.0,67,0.00,,,0.01,56.0,meteohub,2013-07-13 23:35:00,
2013-07-13 19:40:00,79.9,68.4,30.06,North,5,2.0,4.0,68,0.00,,,0.01,116.0,meteohub,2013-07-13 23:40:00,
2013-07-13 19:45:00,79.5,68.5,30.06,NE,34,4.0,4.0,69,0.00,,,0.01,128.0,meteohub,2013-07-13 23:45:00,
2013-07-13 19:50:00,79.5,68.5,30.06,NE,37,1.0,6.0,69,0.00,,,0.01,125.0,meteohub,2013-07-13 23:50:00,
2013-07-13 19:55:00,79.5,68.5,30.06,NNE,15,3.0,6.0,69,0.00,,,0.01,109.0,meteohub,2013-07-13 23:55:00,
2013-07-13 20:00:00,79.3,68.4,30.06,ENE,67,3.0,6.0,69,0.00,,,0.01,37.0,meteohub,2013-07-14 00:00:00,
2013-07-13 20:05:00,79.2,68.5,30.06,NNE,28,3.0,4.0,70,0.00,,,0.00,37.0,meteohub,2013-07-14 00:05:00,
2013-07-13 20:10:00,79.0,68.7,30.06,NE,49,1.0,4.0,71,0.00,,,0.00,33.0,meteohub,2013-07-14 00:10:00,
2013-07-13 20:16:00,78.6,68.9,30.06,ENE,71,2.0,5.0,72,0.00,,,0.00,33.0,meteohub,2013-07-14 00:16:00,
2013-07-13 20:21:00,78.4,68.2,30.06,ENE,57,1.0,5.0,71,0.00,,,0.00,30.0,meteohub,2013-07-14 00:21:00,
2013-07-13 20:26:00,78.3,68.5,30.06,NNE,30,1.0,4.0,72,0.00,,,0.00,26.0,meteohub,2013-07-14 00:26:00,
2013-07-13 20:31:00,78.1,68.7,30.06,NNE,31,1.0,3.0,73,0.00,,,0.00,21.0,meteohub,2013-07-14 00:31:00,
2013-07-13 20:36:00,77.9,68.5,30.06,NE,49,1.0,2.0,73,0.00,,,0.00,19.0,meteohub,2013-07-14 00:36:00,
2013-07-13 20:41:00,77.5,68.5,30.06,NE,36,2.0,4.0,74,0.00,,,0.00,12.0,meteohub,2013-07-14 00:41:00,
2013-07-13 20:46:00,77.4,68.9,30.06,NNE,31,0.0,4.0,75,0.00,,,0.00,9.0,meteohub,2013-07-14 00:46:00,
2013-07-13 20:51:00,77.2,68.7,30.06,NNE,31,0.0,4.0,75,0.00,,,0.00,5.0,meteohub,2013-07-14 00:51:00,
2013-07-13 20:56:00,76.8,69.1,30.06,NNE,31,0.0,3.0,77,0.00,,,0.00,5.0,meteohub,2013-07-14 00:56:00,
2013-07-13 21:01:00,76.3,68.9,30.07,NNE,30,0.0,2.0,78,0.00,,,0.00,0.0,meteohub,2013-07-14 01:01:00,
2013-07-13 21:06:00,75.7,69.1,30.07,NNE,30,0.0,2.0,80,0.00,,,0.00,0.0,meteohub,2013-07-14 01:06:00,
2013-07-13 21:11:00,75.2,68.9,30.07,NNE,30,0.0,1.0,81,0.00,,,0.00,0.0,meteohub,2013-07-14 01:11:00,
2013-07-13 21:17:00,74.7,68.7,30.08,NNE,29,0.0,1.0,82,0.00,,,0.00,0.0,meteohub,2013-07-14 01:17:00,
2013-07-13 21:22:00,73.9,68.7,30.08,NNE,29,0.0,2.0,84,0.00,,,0.00,0.0,meteohub,2013-07-14 01:22:00,
2013-07-13 21:27:00,73.2,68.4,30.08,NNE,29,0.0,2.0,85,0.00,,,0.00,0.0,meteohub,2013-07-14 01:27:00,
2013-07-13 21:32:00,72.9,68.4,30.08,NNE,29,0.0,1.0,86,0.00,,,0.00,0.0,meteohub,2013-07-14 01:32:00,
2013-07-13 21:37:00,72.7,68.2,30.08,NNE,30,0.0,0.0,86,0.00,,,0.00,0.0,meteohub,2013-07-14 01:37:00,
2013-07-13 21:42:00,72.3,68.2,30.09,NNE,30,0.0,1.0,87,0.00,,,0.00,0.0,meteohub,2013-07-14 01:42:00,
2013-07-13 21:47:00,72.0,68.2,30.09,NNE,30,1.0,1.0,88,0.00,,,0.00,0.0,meteohub,2013-07-14 01:47:00,
2013-07-13 21:53:00,71.6,67.8,30.09,North,359,0.0,1.0,88,0.00,,,0.00,0.0,meteohub,2013-07-14 01:53:00,
2013-07-13 21:58:00,71.4,68.0,30.10,North,359,0.0,2.0,89,0.00,,,0.00,0.0,meteohub,2013-07-14 01:58:00,
2013-07-13 22:03:00,71.2,67.8,30.10,North,359,0.0,2.0,89,0.00,,,0.00,0.0,meteohub,2013-07-14 02:03:00,
2013-07-13 22:08:00,71.2,67.8,30.10,NNE,14,0.0,2.0,89,0.00,,,0.00,0.0,meteohub,2013-07-14 02:08:00,
2013-07-13 22:13:00,71.1,67.6,30.10,NNE,15,0.0,2.0,89,0.00,,,0.00,0.0,meteohub,2013-07-14 02:13:00,
2013-07-13 22:18:00,71.1,67.6,30.10,NNE,15,1.0,2.0,89,0.00,,,0.00,0.0,meteohub,2013-07-14 02:18:00,
2013-07-13 22:23:00,71.1,67.6,30.11,NNE,15,0.0,2.0,89,0.00,,,0.00,0.0,meteohub,2013-07-14 02:23:00,
2013-07-13 22:28:00,70.9,67.5,30.11,NNE,15,0.0,2.0,89,0.00,,,0.00,0.0,meteohub,2013-07-14 02:28:00,
2013-07-13 22:33:00,70.7,67.6,30.11,NE,43,0.0,2.0,90,0.00,,,0.00,0.0,meteohub,2013-07-14 02:33:00,
2013-07-13 22:38:00,70.5,67.5,30.11,NE,43,0.0,2.0,90,0.00,,,0.00,0.0,meteohub,2013-07-14 02:38:00,
2013-07-13 22:43:00,70.3,67.3,30.11,NE,43,0.0,2.0,90,0.00,,,0.00,0.0,meteohub,2013-07-14 02:43:00,
2013-07-13 22:49:00,70.3,67.6,30.11,NE,43,0.0,1.0,91,0.00,,,0.00,0.0,meteohub,2013-07-14 02:49:00,
2013-07-13 22:54:00,70.2,67.6,30.11,NE,43,0.0,1.0,92,0.00,,,0.00,0.0,meteohub,2013-07-14 02:54:00,
2013-07-13 22:59:00,70.0,67.5,30.11,NE,43,0.0,1.0,92,0.00,,,0.00,0.0,meteohub,2013-07-14 02:59:00,
2013-07-13 23:04:00,69.8,67.1,30.11,NE,43,0.0,1.0,91,0.00,,,0.00,0.0,meteohub,2013-07-14 03:04:00,
2013-07-13 23:09:00,69.6,67.3,30.11,NE,44,0.0,1.0,92,0.00,,,0.00,0.0,meteohub,2013-07-14 03:09:00,
2013-07-13 23:14:00,69.6,67.5,30.11,NE,44,2.0,2.0,93,0.00,,,0.00,0.0,meteohub,2013-07-14 03:14:00,
2013-07-13 23:19:00,69.4,67.3,30.10,NE,46,0.0,2.0,93,0.00,,,0.00,0.0,meteohub,2013-07-14 03:19:00,
2013-07-13 23:24:00,69.8,67.6,30.10,ENE,77,0.0,2.0,93,0.00,,,0.00,0.0,meteohub,2013-07-14 03:24:00,
2013-07-13 23:29:00,70.0,67.8,30.10,ENE,59,1.0,2.0,93,0.00,,,0.00,0.0,meteohub,2013-07-14 03:29:00,
2013-07-13 23:34:00,70.3,67.8,30.10,ESE,115,2.0,4.0,92,0.00,,,0.00,0.0,meteohub,2013-07-14 03:34:00,
2013-07-13 23:39:00,70.9,68.2,30.10,ENE,63,1.0,4.0,91,0.00,,,0.00,0.0,meteohub,2013-07-14 03:39:00,
2013-07-13 23:44:00,71.2,68.2,30.10,ENE,73,2.0,3.0,90,0.00,,,0.00,0.0,meteohub,2013-07-14 03:44:00,
2013-07-13 23:50:00,71.6,68.2,30.10,ENE,77,1.0,4.0,89,0.00,,,0.00,0.0,meteohub,2013-07-14 03:50:00,
2013-07-13 23:55:00,72.0,68.2,30.10,East,82,0.0,5.0,88,0.00,,,0.00,0.0,meteohub,2013-07-14 03:55:00,